MET194 - Hong Kong to Los Angeles

Airbus A330-243
162EP
12 hrs 25 mins
6305 nm
Scheduled - SU | TU | W | TH | F | SA

Bid/PiRep Status

Bid was submitted on Jan 02 2017.

PiRep # 74597: Approved by Dave Nichols on January 5th, 2017 17:56 UTC

Departure

Departing from
Hong Kong (HKG)
Departure gate
Terminal 1
Scheduled Departure
GMT 0145
Local 0945
METAR VHHH 170330Z 29005KT 9999 FEW020 31/24 Q1010 BECMG 23010KT
TAF TAF VHHH 162300Z 1700/1806 VRB05KT 9999 FEW030 TX33/1706Z TX34/1806Z TN29/1722Z TEMPO 1700/1703 4000 SHRA TEMPO 1700/1712 21010KT TEMPO 1800/1806 21010KT
  • No charts available

Arrival

Arriving at
Los Angeles (LAX)
Arrival gate
Scheduled Arrival
GMT 1410
Local 0710
METAR KLAX 170253Z 27011KT 10SM FEW014 19/17 A2994 RMK AO2 SLP135 T01940167 55002
TAF KLAX 170029Z 1700/1806 27013KT P6SM FEW010 FM170600 26008KT P6SM BKN015 FM171100 12005KT P6SM OVC021 FM171700 26007KT P6SM SCT025 FM172100 26013KT P6SM SKC FM180400 27007KT P6SM SKC

Route Map

Planning Resources

BEKO3A A461 IDUMA W22 SHL G471 PLT A599 PUD A593 NIRAT B576 CJU A586 TENAS B467 NULAR B233 DITOR B962 LEMBA B237 TK B240 ENM J179 MDO J804R FRIED TR19 YZP J523 TOU J501 OED J126 HANDY J1 RBL J126 SAC J65 EHF ZIGGY4 EHF
V3 ENVAR MJE PABBA OTR5 KALNA UNVER ENI AVE FIM ZIGGY4
LAKE2B V1 A470 LJG B221 SHZ G204 AND B221 NINAS G327 LAMEN A593 NIRAT B576 CJU A586 TENAS B467 NULAR B233 DITOR B962 LEMBA B237 TK B240 ENM J179 MDO J804R FRIED TRK19 YZP J523 YZT J590 YVR J5 SUMMA Q9 REBRG ZIGGY4 EHF
ENVAR M750 MJE A590 KAGIS OTR11 LEPKI 38E60 41E70 43E80 45N70 46N60 45N50 42N40 38N30 ALLBE PIRAT AVE FIM
OCEAN2A CONGA ENVAR M750 MJE A590 KAGIS OTR11 AVBET OTR9 EMRON PACOT_3 VESPA ENI J143 PYE J6 LANDO ZIGGY4
Route:
OFP Layout:
Units:
Detailed Navlog:
ETOPS Planning:
Plan Stepclimbs:
Runway Analysis:
Include NOTAMS:
FIR NOTAMS:
Flight Maps:

Return Flights

MET183
Boeing 777-300ER
1840 GMT
MET193
Airbus A330-243
0800 GMT

Popularity

Hub Current Bids PiReps this month Total PiReps
KMCI 0 0 6
KLAX 0 0 5
KBOS 0 0 1